GW0274 Weather Reports


Display with metric or nautical units.
time (UTC)temp
F
wind
direction
speed
MPH
gust
MPH
rain 1hr
in
rain 24hr
in
rain mn
in
humidity
%
barometer
mb
20260508023048 47 0 0.0 0.0 0.00 0.00 0.00 95 1001.9
20260508021554 46 0 0.0 0.0 0.00 0.00 0.00 96 1002.3
20260508020105 47 0 0.0 0.0 0.00 0.00 0.00 96 1002.3
20260508014550 46 0 0.0 0.0 0.00 0.00 0.00 95 1002.5
20260508013046 46 0 0.0 0.0 0.00 0.00 0.00 95 1002.6
20260508011553 46 0 0.0 0.0 0.00 0.00 0.00 94 1002.2
20260508010116 46 0 0.0 0.0 0.00 0.00 0.00 95 1002.2
20260508004556 46 0 0.0 0.0 0.00 0.00 0.00 94 1002.2
20260508003101 47 0 0.0 0.0 0.00 0.00 0.00 94 1002.3
20260508001553 47 0 0.0 0.0 0.00 0.00 0.00 94 1002.4
20260508000054 47 0 0.0 0.0 0.00 0.00 0.00 93 1002.5
20260507234555 46 0 0.0 0.0 0.00 0.00 0.00 92 1002.3
20260507233050 47 0 0.0 0.0 0.00 0.00 0.00 91 1002.1
20260507231556 50 0 0.0 2.0 0.00 0.00 0.00 88 1001.9
20260507230109 55 0 0.0 0.0 0.00 0.00 0.00 87 1000.9
20260507224553 55 0 0.0 1.0 0.00 0.00 0.00 86 1000.8
20260507223157 55 0 0.0 3.0 0.00 0.00 0.00 86 1000.8
20260507221552 55 0 0.0 8.0 0.00 0.00 0.00 86 1001.0
20260507220053 55 0 0.0 9.0 0.00 0.00 0.00 87 1000.8
20260507214559 55 0 0.0 5.0 0.00 0.00 0.00 88 1000.8
20260507213107 55 0 0.0 1.0 0.00 0.00 0.00 88 1000.7
20260507211555 55 0 0.0 8.0 0.00 0.00 0.00 88 1000.7
20260507204551 55 0 1.0 10.0 0.00 0.00 0.00 90 1000.9
20260507203054 54 0 0.0 11.0 0.00 0.00 0.00 91 1000.2
20260507201603 54 91 0.0 13.0 0.00 0.00 0.00 92 1000.2
20260507200105 54 0 0.0 10.0 0.00 0.00 0.00 92 1000.0
20260507194549 54 0 0.0 14.0 0.00 0.00 0.00 92 1001.2
20260507193049 55 160 0.0 8.0 0.00 0.00 0.00 91 1002.1
20260507191547 55 0 0.0 3.0 0.00 0.00 0.00 90 1002.8
20260507190052 54 0 0.0 1.0 0.00 0.00 0.00 92 1002.8
20260507184548 55 0 0.0 10.0 0.00 0.00 0.00 91 1003.1
20260507183057 55 0 0.0 1.0 0.00 0.00 0.00 91 1003.0
20260507181554 56 0 0.0 9.0 0.00 0.00 0.00 91 1003.5
20260507180055 56 0 1.0 10.0 0.00 0.00 0.00 91 1003.6
20260507174557 57 172 0.0 16.0 0.00 0.00 0.00 90 1003.7
20260507173101 58 0 0.0 12.0 0.00 0.00 0.00 88 1003.0
20260507171600 58 90 0.0 16.0 0.00 0.00 0.00 88 1002.3
20260507170053 59 0 0.0 7.0 0.00 0.00 0.00 86 1002.3
20260507164553 60 119 0.0 10.0 0.00 0.00 0.00 81 1002.4
20260507163052 62 0 0.0 10.0 0.00 0.00 0.00 77 1002.4
20260507161602 62 0 3.0 19.0 0.00 0.00 0.00 77 1003.0
20260507160049 62 0 2.0 17.0 0.00 0.00 0.00 76 1002.7
20260507154552 62 50 6.0 26.0 0.00 0.00 0.00 75 1003.0
20260507153110 62 124 6.0 26.0 0.00 0.00 0.00 73 1003.9
20260507151556 63 0 1.0 15.0 0.00 0.00 0.00 74 1004.2
20260507150054 62 234 3.0 22.0 0.00 0.00 0.00 75 1004.5
20260507144552 63 160 3.0 21.0 0.00 0.00 0.00 74 1004.6
20260507143054 63 109 1.0 11.0 0.00 0.00 0.00 75 1004.7
20260507141555 62 189 3.0 16.0 0.00 0.00 0.00 77 1005.1
20260507140058 62 0 1.0 19.0 0.00 0.00 0.00 77 1005.1
20260507134552 62 169 2.0 16.0 0.00 0.00 0.00 75 1005.8
20260507133054 62 0 2.0 19.0 0.00 0.00 0.00 78 1005.4
20260507131552 62 0 1.0 14.0 0.00 0.00 0.00 78 1005.5
20260507130109 64 190 1.0 16.0 0.00 0.00 0.00 76 1005.8
20260507124607 62 160 1.0 11.0 0.00 0.00 0.00 79 1005.9
20260507123104 61 0 0.0 9.0 0.00 0.00 0.00 80 1006.3
20260507121600 61 0 1.0 11.0 0.00 0.00 0.00 81 1006.5
20260507120057 61 0 0.0 12.0 0.00 0.00 0.00 81 1006.7
20260507114553 60 0 1.0 12.0 0.00 0.00 0.00 82 1007.2
20260507113049 60 0 1.0 17.0 0.00 0.00 0.00 82 1007.4
20260507111549 61 113 1.0 21.0 0.00 0.00 0.00 80 1007.6
20260507110059 60 0 2.0 13.0 0.00 0.00 0.00 81 1007.5
20260507104556 60 118 3.0 16.0 0.00 0.00 0.00 81 1007.7
20260507103051 60 0 5.0 16.0 0.00 0.00 0.00 81 1007.9
20260507101557 60 0 2.0 17.0 0.00 0.00 0.00 81 1008.0
20260507100058 60 99 8.0 24.0 0.00 0.00 0.00 81 1008.1
20260507094551 60 96 3.0 21.0 0.00 0.00 0.00 81 1008.3
20260507093053 60 0 3.0 16.0 0.00 0.00 0.00 81 1008.8
20260507091550 59 0 1.0 10.0 0.00 0.00 0.00 82 1009.3
20260507090050 59 0 0.0 11.0 0.00 0.00 0.00 82 1009.2
20260507084550 59 170 0.0 9.0 0.00 0.00 0.00 82 1009.0
20260507083106 59 0 0.0 19.0 0.00 0.00 0.00 81 1009.5
20260507081557 60 0 0.0 9.0 0.00 0.00 0.00 82 1008.7
20260507080053 59 188 0.0 9.0 0.00 0.00 0.00 82 1009.6
20260507074554 59 0 0.0 3.0 0.00 0.00 0.00 81 1010.1
20260507073054 59 0 0.0 14.0 0.00 0.00 0.00 81 1010.6
20260507071551 58 0 0.0 8.0 0.00 0.00 0.00 81 1011.2
20260507070048 59 0 0.0 8.0 0.00 0.00 0.00 80 1010.7
20260507064549 58 0 2.0 16.0 0.00 0.00 0.00 79 1011.4
20260507063050 59 115 2.0 11.0 0.00 0.00 0.00 79 1011.0
20260507061550 59 93 1.0 10.0 0.00 0.00 0.00 78 1011.4
20260507060057 59 100 2.0 16.0 0.00 0.00 0.00 76 1011.5
20260507054553 58 0 0.0 10.0 0.00 0.00 0.00 74 1011.7
20260507053051 59 111 2.0 13.0 0.00 0.00 0.00 70 1012.3
20260507051550 59 0 1.0 16.0 0.00 0.00 0.00 69 1012.6
20260507050049 59 0 6.0 16.0 0.00 0.00 0.00 72 1012.8
20260507044550 59 106 0.0 8.0 0.00 0.00 0.00 74 1013.2
20260507043046 59 0 0.0 11.0 0.00 0.00 0.00 73 1013.6
20260507041555 59 0 0.0 11.0 0.00 0.00 0.00 73 1014.0
20260507040052 60 0 1.0 12.0 0.00 0.00 0.00 72 1014.4
20260507034556 60 93 2.0 18.0 0.00 0.00 0.00 73 1014.5
20260507033050 60 113 2.0 15.0 0.00 0.00 0.00 73 1014.8
20260507031551 60 0 2.0 12.0 0.00 0.00 0.00 74 1014.9
20260507030051 59 0 3.0 15.0 0.00 0.00 0.00 73 1015.1
20260507024603 60 0 2.0 15.0 0.00 0.00 0.00 73 1015.5